Del Bajio, Mexico

12:37 PM CDT on May 21, 2018 (GMT -0500)
De Guanajuato International

Weather History for MMLO - March, 2014

Change the Weather History Date:

Saturday, March 15, 2014

  Actual Average Record
Temperature  
Mean Temperature 68 °F -  
Max Temperature 86 °F 81 °F 89 °F (2006)
Min Temperature 51 °F 48 °F 44 °F (2007)
Cooling Degree Days 4    
Growing Degree Days 18 (Base 50)    
Moisture  
Dew Point 34 °F    
Average Humidity 31    
Maximum Humidity 58    
Minimum Humidity 12    
Precipitation  
Precipitation 0.00 in - - ()
Sea Level Pressure  
Sea Level Pressure 30.01 in    
Wind  
Wind Speed 5 mph ()    
Max Wind Speed 23 mph    
Max Gust Speed 25 mph    
Visibility 9.0 miles    
Events      
Averages and records for this station are not official NWS values.
T = Trace of Precipitation, MM = Missing Value Source: Averaged Metar Reports

Daily Weather History Graph

Daily Weather History Graph

Search for Another Location

Airport or City:

Astronomy

Mar. 15, 2014 Rise Set
Actual Time 6:54 AM CST 6:55 PM CST
Civil Twilight 6:32 AM CST 7:17 PM CST
Nautical Twilight 6:06 AM CST 7:43 PM CST
Astronomical Twilight 5:40 AM CST 8:09 PM CST
Moon 6:17 PM CST (3/15) 6:03 AM CST (3/15)
Length of Visible Light 12h 45m
Length of Day
12h 01m
Waxing Gibbous, 99% of the Moon is Illuminated
Mar 15
Waxing Gibbous
Mar 16
Full
Mar 23
Last Quarter
Mar 30
New
Apr 7
First Quarter

Hourly Weather History & Observations

Time (CST) Temp. Dew Point Humidity Pressure Visibility Wind Dir Wind Speed Gust Speed Precip Events Conditions
12:40 AM 60.8 °F 35.6 °F 39% 30.24 in 8.0 mi North 6.9 mph - N/A   Clear
2:44 AM 55.4 °F 35.6 °F 47% 29.81 in 8.0 mi Calm Calm - N/A   Clear
3:45 AM 55.4 °F 37.4 °F 51% 30.21 in 8.0 mi North 3.5 mph - N/A   Clear
5:42 AM 51.8 °F 37.4 °F 58% 29.83 in 8.0 mi Calm Calm - N/A   Clear
6:41 AM 51.8 °F 37.4 °F 58% 30.21 in 8.0 mi Calm Calm - N/A   Clear
7:44 AM 53.6 °F 39.2 °F 58% 30.24 in 9.0 mi Calm Calm - N/A   Clear
8:40 AM 64.4 °F 41.0 °F 42% 29.89 in 9.0 mi Calm Calm - N/A   Clear
9:41 AM 69.8 °F 41.0 °F 35% 30.24 in 10.0 mi Calm Calm - N/A   Clear
10:58 AM 75.2 °F 39.2 °F 27% 30.24 in 10.0 mi West 9.2 mph - N/A   Clear
11:42 AM 77.0 °F 39.2 °F 26% 29.83 in 10.0 mi WNW 11.5 mph - N/A   Clear
12:57 PM 82.4 °F 35.6 °F 19% 30.15 in 10.0 mi SW 9.2 mph - N/A   Clear
1:49 PM 84.2 °F 33.8 °F 16% 30.12 in 10.0 mi WSW 9.2 mph - N/A   Clear
2:50 PM 86.0 °F 30.2 °F 13% 29.64 in 10.0 mi SSW 16.1 mph - N/A   Clear
3:44 PM 86.0 °F 28.4 °F 12% 30.04 in 10.0 mi West 23.0 mph - N/A   Clear
4:49 PM 84.2 °F 28.4 °F 13% 30.03 in 10.0 mi WSW 11.5 mph 25.3 mph N/A   Clear
5:46 PM 82.4 °F 30.2 °F 15% 29.65 in 10.0 mi WSW 13.8 mph - N/A   Clear
6:44 PM 78.8 °F 28.4 °F 16% 30.04 in 10.0 mi WSW 17.3 mph - N/A   Clear
7:50 PM 71.6 °F 30.2 °F 22% 30.06 in 8.0 mi West 6.9 mph - N/A   Clear
8:48 PM 66.2 °F 32.0 °F 28% 29.75 in 8.0 mi West 6.9 mph - N/A   Clear
9:42 PM 64.4 °F 30.2 °F 28% 30.10 in 8.0 mi WSW 6.9 mph - N/A   Clear
10:40 PM 62.6 °F 30.2 °F 30% 30.13 in 8.0 mi West 6.9 mph - N/A   Clear
11:51 PM 59.0 °F 30.2 °F 34% 29.75 in 8.0 mi WNW 5.8 mph - N/A   Clear